Location: Lancaster
(34.6980°N, 118.1360°W)
Time: 22:38:42
(UTC-08:00)

ISS - Pass Details

Date: 19 November 2017
Orbit: 402 x 407 km, 51.6° (Epoch: 19 November)

Event Time Altitude Azimuth Distance (km) Brightness Sun altitude
Exits shadow 04:57:49 54° 209° (SSW) 489 -3.6 -19.0°
Drops below altitude 10° 05:00:49 10° 147° (SSE) 1,443 -0.4 -18.4°
Sets 05:02:54 0° 143° (SE) 2,298 0.8 -18.0°
